Regional Weather Roundup
Issued by NWS State College, PA

Home | Current Version | Previous Version | Graphics & Text | Print | Product List | Glossary On
Versions: 1 2 3 4 5 6 7 8 9 10 11 12 13 14 15 16 17 18 19 20 21 22 23 24 25 26 27 28 29 30 31 32 33 34 35 36 37 38 39 40 41 42 43 44 45 46 47 48 49 50
000
ASUS41 KCTP 010303
RWRCTP

REGIONAL WEATHER ROUNDUP
NATIONAL WEATHER SERVICE STATE COLLEGE PA
1100 PM EDT MON AUG 31 2015

Note: "fair" indicates few or no clouds below 12,000 feet with no
significant weather and/or obstructions to visibility.

* = STATION THAT DOES NOT REPORT PRECIPITATION /E.G. RAIN...SNOW...ETC/
    THUNDER OR FOG.

PAZ002>004-007>009-013>016-020>023-029>032-010400-
WESTERN PENNSYLVANIA

CITY           SKY/WX    TMP DP  RH WIND       PRES   REMARKS
ERIE           CLEAR     69  64  84 S6        30.07S
MEADVILLE      CLEAR     71  63  75 SW3       30.12R
FRANKLIN*      CLEAR     66  63  88 CALM      30.14R
NEW CASTLE     FAIR      69  69 100 CALM      30.11R
BEAVER COUNTY  NOT AVBL
BUTLER*        CLEAR     70  64  83 N3        30.12S
PITTSBURGH INT PTCLDY    76  65  68 NW6       30.10R
PITTSBURGH     CLEAR     78  60  53 W6        30.10R
INDIANA*       PTCLDY    68  64  88 CALM      30.14S
LATROBE        NOT AVBL
WASHINGTON CO* CLEAR     64  63  94 CALM      30.12R
$$

PAZ004>006-010>012-017>019-024>028-033>037-041-042-045-046-049>053-010400-
CENTRAL PENNSYLVANIA

CITY           SKY/WX    TMP DP  RH WIND       PRES   REMARKS
BRADFORD       FOG       62  60  93 CALM      30.14R VSB 1/2
DUBOIS         CLEAR     70  65  84 CALM      30.12R
CLEARFIELD     CLEAR     69  64  84 CALM      30.11R
JOHNSTOWN      CLEAR     72  60  66 SW5       30.15S
ALTOONA        CLEAR     69  65  86 SW5       30.12R
STATE COLLEGE  CLEAR     71  66  84 CALM      30.09R
WILLIAMSPORT   CLEAR     74  70  87 CALM      30.03R
SELINSGROVE    MOCLDY    70  68  93 CALM      30.04R FOG
FT INDIANTOWN  CLEAR     70  68  92 CALM      30.04S
CAPITAL CITY   CLEAR     77  66  68 CALM      30.04R
HARRISBURG     PTCLDY    78  69  73 SE3       30.03R
YORK           CLEAR     69  66  90 CALM      30.05S
$$

PAZ038>040-043-044-047-048-054-055-060>062-067>071-010400-
EASTERN PENNSYLVANIA

CITY           SKY/WX    TMP DP  RH WIND       PRES   REMARKS
SCRANTON       CLEAR     72  68  87 E3        30.05R
MOUNT POCONO   MOCLDY    69  64  84 NW5       30.10R
ALLENTOWN      CLEAR     76  68  76 CALM      30.02S
QUAKERTOWN*    CLEAR     72  68  88 CALM      30.05R
READING        CLEAR     74  67  78 CALM      30.03R
LANCASTER      CLEAR     76  69  79 SW6       30.05R
COATESVILLE    CLEAR     73  70  88 W5        30.07R
POTTSTOWN      CLEAR     76  70  82 SW3       30.05S
BLUE BELL      CLEAR     77  70  78 CALM      30.03S
DOYLESTOWN     CLEAR     75  69  81 SW5       30.03R
WILLOW GROVE   NOT AVBL
NORTH PHILA    CLEAR     80  65  59 SW8       30.04R
PHILADELPHIA   CLEAR     79  67  66 SW10      30.04R
$$



USA.gov is the U.S. government's official web portal to all federal, state and local government web resources and services.